Location: *
(2.5500°S, 65.9667°W)
Time: 17:46:20
(UTC+00:00)

XW-2D - Pass Details

Date: 02 July 2022
Orbit: 496 x 514 km, 97.5° (Epoch: 10 August)

Event Time Altitude Azimuth Distance (km) Brightness Sun altitude
Rises 09:10:37 0° 46° (NE) 2,610 ? -18.8°
Reaches altitude 10° 09:13:48 10° 77° (ENE) 1,725 ? -18.0°
Maximum altitude 09:15:22 12° 102° (ESE) 1,582 ? -17.7°
Drops below altitude 10° 09:16:56 10° 127° (SE) 1,724 ? -17.3°
Sets 09:20:07 0° 158° (SSE) 2,608 ? -16.6°
